This demonstration page uses our WeatherBlox Daily Observations layout. Learn more.

Left ArrowRight Arrow

39.29038, -76.61219

Hourly Observations for June 14, 2020

Temp ( °F °C ) Dew Point ( °F °C ) Humidity (%) Winds ( mph kmh ) Pressure ( in mb ) Visibility ( mi km ) Precip ( " mm )
12:54 am 00:54 Mostly Cloudy 68 20 40 4.4 36 36 NE 9 15 30.23 1024 10 16 0.00 0.00
1:54 am 01:54 Mostly Cloudy 65 18.3 41 5 42 42 NE 10 17 30.24 1024 10 16 0.00 0.00
2:54 am 02:54 Mostly Cloudy 64 17.8 41 5 43 43 NE 9 15 30.25 1024 10 16 0.00 0.00
3:54 am 03:54 Mostly Cloudy 63 17.2 41 5 45 45 NE 9 15 30.25 1025 10 16 0.00 0.00
4:54 am 04:54 Mostly Cloudy 62 16.7 42 5.6 48 48 NE 9 15 30.27 1025 10 16 0.00 0.00
5:54 am 05:54 Mostly Cloudy 62 16.7 43 6.1 50 50 NE 10 17 30.29 1026 10 16 0.00 0.00
6:54 am 06:54 Mostly Cloudy 61 16.1 44 6.7 54 54 NE 9 15 30.31 1027 10 16 0.00 0.00
7:54 am 07:54 Mostly Cloudy 62 16.7 44 6.7 52 52 NE 9 15 30.34 1027 10 16 0.00 0.00
8:54 am 08:54 Mostly Cloudy 63 17.2 45 7.2 52 52 NE 10 17 30.35 1028 10 16 0.00 0.00
9:54 am 09:54 Partly Cloudy 66 18.9 47 8.3 50 50 ENE 9 15 30.35 1028 10 16 0.00 0.00
10:54 am 10:54 Partly Cloudy 69 20.6 49 9.4 49 49 ENE 13 20 30.35 1028 10 16 0.00 0.00
11:54 am 11:54 Partly Cloudy 70 21.1 49 9.4 47 47 ENE 8 13 30.34 1028 10 16 0.00 0.00
12:54 pm 12:54 Partly Cloudy 72 22.2 49 9.4 44 44 VRB 5 7 30.32 1027 10 16 0.00 0.00
1:54 pm 13:54 Partly Cloudy 74 23.3 49 9.4 41 41 E 7 11 30.31 1027 10 16 0.00 0.00
2:54 pm 14:54 Partly Cloudy 75 23.9 48 8.9 39 39 undefined N/A 30.30 1026 10 16 0.00 0.00
3:54 pm 15:54 Partly Cloudy 75 23.9 49 9.4 40 40 NE 6 9 30.29 1026 10 16 0.00 0.00
4:54 pm 16:54 Partly Cloudy 75 23.9 47 8.3 37 37 E 5 7 30.28 1026 10 16 0.00 0.00
5:54 pm 17:54 Mostly Cloudy 74 23.3 48 8.9 40 40 E 5 7 30.29 1026 10 16 0.00 0.00
6:54 pm 18:54 Mostly Cloudy 74 23.3 49 9.4 41 41 ENE 7 11 30.29 1026 10 16 0.00 0.00
7:54 pm 19:54 Mostly Cloudy 72 22.2 49 9.4 44 44 ENE 7 11 30.30 1026 10 16 0.00 0.00
8:54 pm 20:54 Partly Cloudy 71 21.7 49 9.4 46 46 ENE 7 11 30.30 1026 10 16 0.00 0.00
9:54 pm 21:54 Partly Cloudy 69 20.6 53 11.7 57 57 ESE 10 17 30.31 1026 10 16 0.00 0.00
10:54 pm 22:54 Mostly Cloudy 66 18.9 48 8.9 52 52 E 9 15 30.32 1027 10 16 0.00 0.00
11:54 pm 23:54 Partly Cloudy 65 18.3 50 10 59 59 ENE 10 17 30.32 1027 10 16 0.00 0.00

Powered by AerisWeather